SCP
0 0 0 0 0 0 0 0 0 0 0 0 0 0 0 0 0 0 0 0 0 0 0 0 0 0 0 0 0 0 0 0 0 0 0 0 0 0
0 0 0 0 0 0 0 0 0 0 0 0 0 0 0 0 0 0 0 0 0 0 0 0 0 0 0 0 0 0 0 0 0 0 0 0 0 0
0 0 0 0 0 0 0 0 0 0 0 0 0 0 0 0 0 0 0 0 0 0 0 0 0 0 0 0 0 0 0 0 0 0 0 0 0 0
0 0 0 0 0 0 0 0 0 0 0 0 0 0 0 0 0 0 0 0 0 0 0 0 0 0 0 0 0 0 0 0 0 0 0 0 0 0
0 0 0 0 0 0 0 0 0 0 0 0 0 0 0 0 0 0 0 0 0 0 0 0 0 0 0 0 0 0 0 0 0 0 0 0 0 0
0 0 0 0 0 0 0 0 0 0 0 0 0 0 0 0 0 0 0 0 0 0 0 0 0 0 0 0 0 0 0 0 0 0 0 0 0 0
0 0 0 0 0 0 0 0 0 0 0 0 0 0 0 0 0 0 0 0 0 0 0 0 0 0 0 0 0 0 0 0 0 0 0 0 0 0
0 0 0 0 0 0 0 0 0 0 0 0 0 0 0 0 0 0 0 0 0 0 0 0 0 0 0 0 0 0 0 0 0 0 0 0 0 0
0 0 0 0 0 0 0 0 0 0 0 0 0 0 0 0 0 0 0 0 0 0 0 0 0 0 0 0 0 0 0 0 0 0 0 0 0 0
0 0 0 0 0 0 0 0 0 0 0 0 0 0 0 0 0 0 0 0 0 0 0 0 0 0 0 0 0 0 0 0 0 0 0 0 0 0
0 0 0 0 0 0 0 0 0 0 0 0 0 0 0 0 0 0 0 0 0 0 0 0 0 0 0 0 0 0 0 0 0 0 0 0 0 0
0 0 0 0 0 0 0 0 0 0 0 0 0 0 0 0 0 0 0 0 0 0 0 0 0 0 0 0 0 0 0 0 0 0 0 0 0 0
0 0 0 0 0 0 0 0 0 0 0 0 0 0 0 0 0 0 0 0 0 0 0 0 0 0 0 0 0 0 0 0 0 0 0 0 0 0
0 0 0 0 0 0 0 0 0 0 0 0 0 0 0 0 0 0 0 0 0 0 0 0 0 0 0 0 0 0 0 0 0 0 0 0 0 0
0 0 0 0 0 0 0 0 0 0 0 0 0 0 0 0 0 0 0 0 0 0 0 0 0 0 0 0 0 0 0 0 0 0 0 0 0 0
0 0 0 0 0 0 0 0 0 0 0 0 0 0 0 0 0 0 0 0 0 0 0 0 0 0 0 0 0 0 0 0 0 0 0 0 0 0
0 0 0 0 0 0 0 0 0 0 0 0 0 0 0 0 0 0 0 0 0 0 0 0 0 0 0 0 0 0 0 0 0 0 0 0 0 0
0 0 0 0 0 0 0 0 0 0 0 0 0 0 0 0 0 0 0 0 0 0 0 0 0 0 0 0 0 0 0 0 0 0 0 0 0 0
0 0 0 0 0 0 0 0 0 0 0 0 0 0 0 0 0 0 0 0 0 0 0 0 0 0 0 0 0 0 0 0 0 0 0 0 0 0
0 0 0 0 0 0 0 0 0 0 0 0 0 0 0 0 0 0 0 0 0 0 0 0 0 0 0 0 0 0 0 0 0 0 0 0 0 0
0 0 0 0 0 0 0 0 0 0 0 0 0 0 0 0 0 0 0 0 0 0 0 0 0 0 0 0 0 0 0 0 0 0 0 0 0 0
0 0 0 0 0 0 0 0 0 0 0 0 0 0 0 0 0 0 0 0 0 0 0 0 0 0 0 0 0 0 0 0 0 0 0 0 0 0
0 0 0 0 0 0 0 0 0 0 0 0 0 0 0 0 0 0 0 0 0 0 0 0 0 0 0 0 0 0 0 0 0 0 0 0 0 0
Wind_Speed
1 1 1 1 0 1 0 1 1 1 3 3 2 4 3 4 4 4 7 11 10 11 11 12 13 13 14 14 14 14 14 14 14 14 14 14 15 15
1 1 1 1 2 1 1 0 1 1 2 3 3 3 3 3 4 5 7 9 11 10 10 11 12 12 13 13 13 14 13 13 13 13 14 14 14 14
3 3 3 2 2 2 1 1 2 1 3 4 3 3 3 4 4 4 4 5 7 11 10 10 11 11 12 12 12 13 13 13 13 13 13 14 14 14
3 3 3 3 3 2 2 2 2 1 2 4 4 3 3 3 3 3 3 4 5 10 10 10 10 11 11 11 11 12 12 12 12 13 13 13 13 13
3 3 3 3 3 3 2 2 2 3 2 3 3 2 2 2 2 3 3 3 3 5 7 8 9 9 10 10 10 10 11 11 11 11 12 12 12 12
3 3 2 2 3 3 3 3 3 3 3 2 3 2 2 2 1 1 2 2 2 2 4 4 6 6 8 9 9 9 9 9 9 10 10 11 11 11
4 4 4 5 6 3 2 2 3 2 2 2 2 2 2 1 1 0 1 1 2 2 2 2 2 2 4 6 7 8 8 8 8 9 9 9 10 10
4 4 5 5 5 5 5 5 3 1 2 2 2 1 1 1 1 0 0 0 1 2 1 1 2 2 3 4 7 7 7 8 8 8 8 8 9 9
4 4 3 4 4 5 7 6 4 3 3 1 1 1 1 1 0 0 0 1 2 2 2 1 2 2 2 5 7 6 7 7 7 8 8 8 8 8
3 3 4 4 3 3 4 4 3 3 1 0 1 2 3 2 1 1 1 0 1 2 2 2 1 1 1 3 6 5 5 6 7 7 8 8 8 8
3 3 3 4 5 3 4 4 4 4 5 5 6 6 7 6 3 0 0 1 0 2 1 2 2 2 1 1 4 3 3 4 5 6 7 8 9 8
3 3 2 2 6 4 4 4 4 4 4 5 4 4 3 4 2 1 1 1 1 1 2 2 2 2 1 1 1 1 1 1 1 2 5 7 9 6
4 3 4 6 5 3 2 2 2 2 3 3 3 3 2 2 2 2 2 2 2 2 2 2 2 2 3 2 1 2 2 2 2 1 1 3 5 6
3 3 5 9 7 5 3 4 4 2 2 2 2 2 2 2 2 2 2 2 2 3 2 2 2 3 3 3 2 2 2 3 3 3 3 2 1 1
2 5 6 8 7 5 5 5 4 3 2 2 2 2 2 2 2 2 2 2 2 2 2 2 2 3 3 3 3 3 3 3 3 4 4 4 4 3
5 6 7 5 3 4 5 4 3 2 2 2 2 2 2 2 1 1 1 1 1 1 2 2 2 3 3 3 3 4 3 3 4 4 4 4 4 4
6 5 5 5 4 4 3 3 3 3 3 2 2 2 2 2 1 1 1 1 1 1 1 1 1 1 2 4 3 3 3 4 4 4 5 5 4 4
7 5 5 5 5 4 4 4 3 3 3 2 2 2 2 2 1 1 1 1 1 1 1 1 1 1 1 1 1 4 4 4 4 4 5 5 5 4
5 5 5 5 4 4 4 4 3 3 3 3 2 2 2 2 2 2 1 1 1 1 1 1 2 2 4 3 0 0 4 4 4 4 4 5 6 5
4 4 4 4 4 4 4 4 3 3 3 3 3 2 2 2 2 1 1 1 1 1 1 1 1 2 4 5 4 3 2 4 4 5 5 5 5 5
5 4 4 4 4 4 3 3 3 3 3 3 3 2 2 2 2 1 1 1 2 2 2 2 2 3 4 3 3 3 2 1 3 5 6 5 6 6
4 4 4 4 4 3 3 3 3 3 3 3 3 2 2 2 2 2 1 1 1 1 2 2 1 2 2 3 4 4 4 3 1 4 4 4 5 6
4 4 4 4 4 3 3 4 4 3 3 3 3 3 3 2 2 1 1 1 1 1 2 2 1 2 2 3 4 4 5 5 4 4 3 2 5 8
Wind_Direction
99 105 106 104 133 89 107 304 310 135 111 92 80 63 62 64 44 62 67 64 59 57 56 56 54 52 51 50 49 47 46 46 46 45 44 43 41 40
88 94 92 103 92 98 112 57 339 4 91 95 89 79 60 70 66 67 75 81 64 58 57 57 56 55 54 51 49 47 45 44 43 43 41 40 38 37
137 123 108 95 111 104 98 86 68 68 107 106 96 90 83 70 77 76 76 75 77 64 58 59 59 57 54 53 51 49 47 44 43 41 40 38 36 34
132 125 122 124 115 101 96 93 85 77 116 114 111 95 78 72 65 71 79 76 77 75 67 64 62 58 55 53 51 50 48 45 42 39 36 35 33 31
123 123 129 135 133 114 108 100 97 97 98 119 108 97 91 81 84 80 86 79 80 100 93 81 69 62 56 53 50 47 46 44 40 36 33 30 28 26
124 119 118 124 124 123 122 114 112 112 109 117 117 117 102 84 98 93 97 97 71 66 80 92 93 88 71 58 50 45 42 40 36 33 29 26 24 22
131 122 103 78 53 54 68 110 125 131 128 124 117 113 99 85 49 32 85 94 86 30 40 73 87 73 87 75 51 39 37 35 30 26 24 21 18 15
146 138 129 130 111 97 73 59 48 92 124 132 128 125 99 81 42 331 16 297 93 50 338 53 49 45 57 54 51 44 36 30 24 19 15 13 11 7
157 147 136 135 155 145 134 134 103 54 17 16 106 80 64 52 348 223 6 359 30 44 338 18 38 38 63 76 64 48 38 29 23 17 12 8 4 359
165 160 162 160 155 158 145 138 124 112 105 121 72 59 38 28 356 338 351 73 95 77 349 336 13 359 35 87 86 57 42 33 26 20 14 5 354 345
162 163 173 167 127 163 169 154 142 127 96 74 58 68 62 44 8 325 211 228 170 105 38 323 348 329 293 102 105 104 73 45 27 18 11 4 349 328
160 153 130 150 139 181 193 178 170 154 149 142 134 135 121 102 62 354 340 315 331 62 45 317 333 323 303 53 37 56 76 99 74 34 14 6 353 332
171 166 145 142 146 164 214 183 135 150 154 150 140 128 118 100 95 69 28 351 346 19 25 310 315 312 308 319 350 0 349 348 341 350 21 17 358 341
176 166 141 142 145 149 155 121 126 167 169 164 158 145 131 106 82 72 64 55 29 14 5 327 322 316 308 306 322 344 337 338 335 334 340 346 298 270
146 108 122 140 145 144 140 147 168 181 175 177 171 149 125 107 101 94 86 77 64 47 15 344 320 311 305 309 317 321 322 328 327 324 329 333 336 338
155 133 129 131 145 129 146 166 184 171 185 180 161 136 129 132 137 139 149 166 140 91 44 3 334 317 304 311 310 315 322 323 328 325 324 323 327 332
162 163 166 165 168 170 169 164 168 168 173 174 159 155 159 151 138 142 241 239 255 311 27 35 354 337 323 319 308 317 318 318 325 326 319 315 320 329
165 175 181 183 184 182 180 177 177 181 181 176 172 174 177 180 176 180 214 247 266 287 315 332 328 294 259 154 340 310 311 315 319 319 313 309 314 330
180 188 188 188 189 188 185 184 183 181 179 179 184 186 188 194 197 200 211 234 259 274 290 303 298 298 301 311 359 274 310 313 312 312 314 312 310 319
197 194 192 187 186 187 187 186 182 176 179 183 188 191 194 201 205 207 214 247 257 268 276 287 300 299 299 307 312 322 292 307 311 309 311 306 304 300
190 192 193 189 185 184 183 182 178 177 178 180 187 191 191 194 200 211 214 213 255 267 281 299 320 275 282 291 290 304 328 261 293 304 313 310 311 307
190 190 189 188 185 180 177 178 179 177 179 186 187 187 189 196 199 210 223 231 245 267 284 300 308 287 279 282 289 300 314 324 262 240 257 283 312 312
188 186 181 179 181 178 178 181 182 181 181 186 188 183 181 187 194 202 214 228 249 272 286 292 292 285 281 282 288 296 307 315 317 309 301 245 257 274